Weather History for KMXO - January, 2014

Change the Weather History Date:

Monday, January 13, 2014

  Actual Average Record
Temperature  
Mean Temperature 30 °F -  
Max Temperature 37 °F 25 °F 37 °F (2014)
Min Temperature 24 °F 11 °F -9 °F (2009)
Degree Days  
Heating Degree Days 34    
Moisture  
Dew Point 28 °F    
Average Humidity 85    
Maximum Humidity 100    
Minimum Humidity 70    
Precipitation  
Precipitation 0.00 in - - ()
Sea Level Pressure  
Sea Level Pressure 29.65 in    
Wind  
Wind Speed 6 mph (West)    
Max Wind Speed 24 mph    
Max Gust Speed 30 mph    
Visibility 10 miles    
Events      
Averages and records for this station are not official NWS values.
T = Trace of Precipitation, MM = Missing Value Source: NWS Daily Summary

Daily Weather History Graph

Daily Weather History Graph

Search for Another Location

Airport or City:

Trip Planner

Search our weather history database for the weather conditions in past years. The results will help you decide how hot, cold, wet, or windy it might be!

Date:

Astronomy

Jan. 13, 2014 Rise Set
Actual Time 7:31 AM CST 4:55 PM CST
Civil Twilight 7:00 AM CST 5:26 PM CST
Nautical Twilight 6:25 AM CST 6:01 PM CST
Astronomical Twilight 5:52 AM CST 6:34 PM CST
Moon 3:11 PM CST (1/13) 5:20 AM CST (1/13)
Length of Visible Light 10h 26m
Length of Day
9h 23m
Waxing Gibbous, 95% of the Moon is Illuminated
Jan 13
Waxing Gibbous
Jan 15
Full
Jan 23
Last Quarter
Jan 30
New
Feb 6
First Quarter

Hourly Weather History & Observations

Time (CST) Temp. Windchill Dew Point Humidity Pressure Visibility Wind Dir Wind Speed Gust Speed Precip Events Conditions
12:15 AM 32.0 °F - 32.0 °F 100% 29.56 in 10.0 mi Calm Calm - N/A   Overcast
12:35 AM 33.8 °F - 32.0 °F 93% 29.55 in 10.0 mi Calm Calm - N/A   Overcast
12:55 AM 33.8 °F - 32.0 °F 93% 29.55 in 10.0 mi Calm Calm - N/A   Overcast
1:15 AM 33.8 °F - 32.0 °F 93% 29.55 in 10.0 mi Calm Calm - N/A   Overcast
1:35 AM 33.8 °F - 32.0 °F 93% 29.55 in 10.0 mi Calm Calm - N/A   Overcast
1:55 AM 33.8 °F - 32.0 °F 93% 29.55 in 10.0 mi Calm Calm - N/A   Overcast
2:15 AM 33.8 °F - 32.0 °F 93% 29.54 in 10.0 mi Calm Calm - N/A   Overcast
2:35 AM 33.8 °F - 32.0 °F 93% 29.55 in 10.0 mi Calm Calm - N/A   Overcast
2:55 AM 33.8 °F 30.8 °F 32.0 °F 93% 29.56 in 10.0 mi SSW 3.5 mph - N/A   Overcast
3:15 AM 33.8 °F 30.8 °F 32.0 °F 93% 29.56 in 10.0 mi SSW 3.5 mph - N/A   Overcast
3:35 AM 35.6 °F - 32.0 °F 87% 29.55 in 10.0 mi Calm Calm - N/A   Overcast
3:55 AM - - - N/A% 29.55 in 10.0 mi North - - N/A   Overcast
4:15 AM 33.8 °F - 32.0 °F 93% 29.55 in 10.0 mi Calm Calm - N/A   Overcast
4:35 AM 33.8 °F 30.8 °F 32.0 °F 93% 29.55 in 10.0 mi SSW 3.5 mph - N/A   Overcast
4:55 AM 33.8 °F - 32.0 °F 93% 29.56 in 10.0 mi North - - N/A   Overcast
5:15 AM 33.8 °F - 32.0 °F 93% 29.56 in 10.0 mi Calm Calm - N/A   Overcast
5:35 AM 33.8 °F - 32.0 °F 93% 29.56 in 10.0 mi Calm Calm - N/A   Overcast
5:55 AM 33.8 °F - 32.0 °F 93% 29.57 in 10.0 mi Calm Calm - N/A   Overcast
6:15 AM 35.6 °F 29.9 °F 32.0 °F 87% 29.57 in 10.0 mi WSW 6.9 mph - N/A   Overcast
6:35 AM 35.6 °F 29.9 °F 32.0 °F 87% 29.58 in 10.0 mi West 6.9 mph - N/A   Unknown
6:55 AM 35.6 °F 29.2 °F 32.0 °F 87% 29.58 in 10.0 mi West 8.1 mph - N/A   Overcast
7:15 AM 35.6 °F 31.7 °F 32.0 °F 87% 29.58 in 10.0 mi West 4.6 mph - N/A   Overcast
7:35 AM 35.6 °F 29.2 °F 32.0 °F 87% 29.59 in 10.0 mi West 8.1 mph - N/A   Overcast
7:55 AM 35.6 °F 28.0 °F 32.0 °F 87% 29.60 in 10.0 mi West 10.4 mph - N/A   Overcast
8:15 AM 35.6 °F 27.1 °F 32.0 °F 87% 29.60 in 10.0 mi West 12.7 mph - N/A   Overcast
8:35 AM 35.6 °F 26.2 °F 32.0 °F 87% 29.61 in 10.0 mi West 15.0 mph - N/A   Overcast
8:55 AM 35.6 °F 26.2 °F 32.0 °F 87% 29.61 in 10.0 mi WNW 15.0 mph - N/A   Mostly Cloudy
9:15 AM 35.6 °F 26.6 °F 32.0 °F 87% 29.62 in 10.0 mi NW 13.8 mph - N/A   Scattered Clouds
9:35 AM 37.4 °F 29.3 °F 32.0 °F 81% 29.63 in 10.0 mi WNW 12.7 mph - N/A   Partly Cloudy
9:55 AM 35.6 °F 26.6 °F 32.0 °F 87% 29.64 in 10.0 mi WNW 13.8 mph 20.7 mph N/A   Scattered Clouds
10:15 AM 35.6 °F 24.5 °F 32.0 °F 87% 29.64 in 10.0 mi WNW 20.7 mph 26.5 mph N/A   Mostly Cloudy
10:35 AM 35.6 °F 25.2 °F 30.2 °F 81% 29.64 in 10.0 mi WNW 18.4 mph - N/A   Overcast
10:55 AM 33.8 °F 22.8 °F 30.2 °F 87% 29.65 in 10.0 mi WNW 18.4 mph 24.2 mph N/A   Overcast
11:15 AM 33.8 °F 21.3 °F 30.2 °F 87% 29.65 in 10.0 mi NW 24.2 mph - N/A   Overcast
11:35 AM 33.8 °F 21.6 °F 28.4 °F 81% 29.66 in 10.0 mi WNW 23.0 mph - N/A   Overcast
11:55 AM 32.0 °F 20.5 °F 28.4 °F 87% 29.66 in 10.0 mi WNW 18.4 mph 26.5 mph N/A   Overcast
12:15 PM 32.0 °F 19.2 °F 26.6 °F 80% 29.66 in 10.0 mi NW 23.0 mph 29.9 mph N/A   Overcast
12:35 PM 32.0 °F 20.1 °F 26.6 °F 80% 29.66 in 10.0 mi NW 19.6 mph 26.5 mph N/A   Overcast
12:55 PM 32.0 °F 21.2 °F 26.6 °F 80% 29.66 in 10.0 mi WNW 16.1 mph 21.9 mph N/A   Scattered Clouds
1:15 PM 33.8 °F 23.9 °F 26.6 °F 75% 29.67 in 10.0 mi WNW 15.0 mph 23.0 mph N/A   Clear
1:35 PM 33.8 °F 22.5 °F 24.8 °F 70% 29.67 in 10.0 mi WNW 19.6 mph - N/A   Clear
1:55 PM 33.8 °F 22.2 °F 24.8 °F 70% 29.67 in 10.0 mi WNW 20.7 mph 27.6 mph N/A   Clear
2:15 PM 33.8 °F 22.2 °F 24.8 °F 70% 29.68 in 10.0 mi WNW 20.7 mph - N/A   Clear
2:35 PM 33.8 °F 24.8 °F 24.8 °F 70% 29.70 in 10.0 mi WNW 12.7 mph 24.2 mph N/A   Clear
2:55 PM 33.8 °F 23.2 °F 24.8 °F 70% 29.71 in 10.0 mi WNW 17.3 mph - N/A   Clear
3:15 PM 33.8 °F 24.3 °F 24.8 °F 70% 29.72 in 10.0 mi WNW 13.8 mph - N/A   Clear
3:35 PM 33.8 °F 24.8 °F 24.8 °F 70% 29.72 in 10.0 mi West 12.7 mph - N/A   Clear
3:55 PM 32.0 °F 23.6 °F 26.6 °F 80% 29.73 in 10.0 mi West 10.4 mph 16.1 mph N/A   Clear
4:15 PM 32.0 °F 24.2 °F 26.6 °F 80% 29.73 in 10.0 mi West 9.2 mph - N/A   Clear
4:35 PM 32.0 °F 26.4 °F 24.8 °F 75% 29.74 in 10.0 mi WNW 5.8 mph - N/A   Clear
4:55 PM 30.2 °F 23.4 °F 24.8 °F 80% 29.74 in 10.0 mi West 6.9 mph - N/A   Clear
5:15 PM 28.4 °F - 24.8 °F 86% 29.75 in 10.0 mi North - - N/A   Clear
5:35 PM 28.4 °F 22.2 °F 24.8 °F 86% 29.76 in 10.0 mi West 5.8 mph - N/A   Clear
5:55 PM 28.4 °F 24.6 °F 24.8 °F 86% 29.76 in 10.0 mi West 3.5 mph - N/A   Clear
6:15 PM 28.4 °F - 24.8 °F 86% 29.75 in 7.0 mi Calm Calm - N/A   Clear
6:35 PM 28.4 °F - 24.8 °F 86% 29.75 in 10.0 mi Calm Calm - N/A   Clear
6:55 PM 28.4 °F - 24.8 °F 86% 29.74 in 10.0 mi Calm Calm - N/A   Clear
7:15 PM 26.6 °F - 23.0 °F 86% 29.74 in 10.0 mi Calm Calm - N/A   Clear
7:35 PM 26.6 °F - 24.8 °F 93% 29.74 in 10.0 mi Calm Calm - N/A   Clear
7:55 PM 24.8 °F 19.1 °F 23.0 °F 93% 29.74 in 10.0 mi South 4.6 mph - N/A   Clear
8:15 PM 24.8 °F 19.1 °F 23.0 °F 93% 29.74 in 10.0 mi SSW 4.6 mph - N/A   Clear
8:35 PM 24.8 °F 20.5 °F 23.0 °F 93% 29.75 in 10.0 mi SW 3.5 mph - N/A   Partly Cloudy
8:55 PM 26.6 °F 21.2 °F 23.0 °F 86% 29.74 in 10.0 mi SSW 4.6 mph - N/A   Mostly Cloudy
9:15 PM 24.8 °F - 23.0 °F 93% 29.75 in 10.0 mi Calm Calm - N/A   Overcast
9:35 PM 26.6 °F 22.6 °F 23.0 °F 86% 29.74 in 10.0 mi South 3.5 mph - N/A   Overcast
9:55 PM 28.4 °F - 24.8 °F 86% 29.74 in 10.0 mi Calm Calm - N/A   Overcast
10:15 PM 28.4 °F 23.3 °F 24.8 °F 86% 29.74 in 10.0 mi South 4.6 mph - N/A   Overcast
10:35 PM 28.4 °F 21.2 °F 24.8 °F 86% 29.72 in 10.0 mi SSE 6.9 mph - N/A   Overcast
10:55 PM 30.2 °F 25.4 °F 24.8 °F 80% 29.71 in 10.0 mi SSW 4.6 mph - N/A   Mostly Cloudy
11:15 PM 30.2 °F 21.9 °F 24.8 °F 80% 29.71 in 10.0 mi South 9.2 mph - N/A   Overcast
11:35 PM 30.2 °F 21.9 °F 24.8 °F 80% 29.69 in 10.0 mi SSE 9.2 mph - N/A   Overcast
11:55 PM 32.0 °F 24.8 °F 26.6 °F 80% 29.69 in 10.0 mi South 8.1 mph - N/A   Overcast